User: anonymous   Login
Location: Heidgraben
(53.7081°N, 9.6576°E)
Time: 13:09:53
(UTC+00:00)
Language:

Cosmos 1110 Rocket - Orbit

View from above orbital plane
View from above orbital plane
View from above satellite
View from above satellite

Ground track
Ground track

The orbit data is extracted from the following two-line orbital elements,

1 11427U 79060B   20262.70652081 +.00000020 +00000-0 +15698-4 0  9993
2 11427 074.0196 355.9190 0020569 213.6246 146.3604 14.37423898158548
Epoch (UTC): 18 September 2020 16:57:23
Eccentricity: 0.0020569
inclination: 74.0196°
perigee height: 752 km
apogee height: 782 km
right ascension of ascending node: 355.9190°
argument of perigee: 213.6246°
revolutions per day: 14.37423898
mean anomaly at epoch: 146.3604°
orbit number at epoch: 15854

The dashed part of the orbit path shows where the satellite is in the earth's shadow,  

DLR